Content
SEND FEEDBACK

Daily
Averages
Monthly
Summary
United States of America

BARBERS POINT, HAWAII


Home > North America > United States > Hawaii
Elevation: 33 feet     Latitude: 21 19N     Longitude: 158 04W

WEATHER
 
SELECT A DAY
Number of Records: 154,346;   Date Range: 1/1/95 - 10/22/14
 
SHARE

PRINT THIS DATA

[ ← Previous Day ]
WEATHER ALMANAC - FEBRUARY 13, 2013
[ Next Day → ]
[ °C ]   °F
Weather ElementAverageHighLow
Temperature69.8 °F79 °F (1:53 pm)59 °F (6:53 am)
Dewpoint55.8 °F60.1 °F (9:53 am)54 °F (6:53 am)
Humidity62.4 %83 % (6:53 am)42 % (1:53 pm)
Barometer30.12 in30.18 in (9:53 am)30.05 in (3:53 pm)
Wind Speed3.4 mph9.2 mph (1:53 pm)
Weather ElementAverage
Visibility10 mi
Wind DirectionNNE (9.6 °)

Weather ElementTotal
Precipitation---
Cooling Degree Days4 (Base 65)
Growing Degree Days19 (Base 50)
Averaged from 23 records on February 13, 2013
WEATHER CONDITIONS BREAKOUT
WIND DIRECTION BREAKOUT
WEATHER BY HOUR - FEBRUARY 13, 2013
[ °C ]   °F
Local TimeTemperatureDewpointHumidityBarometerVisibilityWind DirectionWind SpeedGust SpeedPrecipitationEventsConditions
1:53 AM64.9 °F55.9 °F73 %30.16 in10.0 miVariable3.5 mphOvercast
2:53 AM63.0 °F55.9 °F78 %30.13 in10.0 miCalmPartly Cloudy
3:53 AM66.9 °F55.0 °F66 %30.13 in10.0 miCalmOvercast
4:53 AM64.0 °F55.0 °F73 %30.12 in10.0 miCalmScattered Clouds
5:53 AM62.1 °F55.0 °F78 %30.13 in10.0 miCalmPartly Cloudy
6:53 AM59.0 °F54.0 °F83 %30.14 in10.0 miCalmPartly Cloudy
7:53 AM66.0 °F55.0 °F68 %30.15 in10.0 miCalmOvercast
8:53 AM72.0 °F55.0 °F55 %30.17 in10.0 miVariable3.5 mphOvercast
9:53 AM69.1 °F60.1 °F73 %30.18 in9.0 miEast (80°)4.6 mph0.00 inRainLight Rain
10:53 AM75.9 °F55.9 °F50 %30.16 in10.0 miVariable5.8 mph0.00 inMostly Cloudy
11:53 AM73.9 °F54.0 °F50 %30.14 in10.0 miENE (70°)6.9 mphClear
12:53 PM78.1 °F55.0 °F45 %30.11 in10.0 miVariable5.8 mphPartly Cloudy
1:53 PM79.0 °F54.0 °F42 %30.08 in10.0 miENE (70°)9.2 mphClear
2:53 PM75.0 °F55.0 °F50 %30.06 in10.0 miVariable4.6 mphScattered Clouds
3:53 PM77.0 °F54.0 °F45 %30.05 in10.0 miVariable3.5 mphScattered Clouds
4:53 PM73.9 °F55.9 °F53 %30.07 in10.0 miVariable5.8 mphMostly Cloudy
5:53 PM73.0 °F55.9 °F55 %30.08 in10.0 miVariable5.8 mphMostly Cloudy
6:53 PM70.0 °F57.0 °F63 %30.10 in10.0 miVariable3.5 mphMostly Cloudy
7:53 PM70.0 °F57.0 °F63 %30.13 in10.0 miVariable3.5 mphMostly Cloudy
8:53 PM68.0 °F57.0 °F68 %30.14 in10.0 miVariable4.6 mphPartly Cloudy
9:53 PM69.1 °F57.9 °F68 %30.15 in10.0 miVariable4.6 mphOvercast
10:53 PM68.0 °F57.0 °F68 %30.14 in10.0 miCalmMostly Cloudy
11:53 PM68.0 °F57.0 °F68 %30.14 in10.0 miVariable3.5 mphMostly Cloudy
Hourly data recorded from PHJR, located miles away from Barbers Point, Hawaii







STORIES FROM OUR PARTNERS